Location: Huesca
(42.1318°N, 0.4078°W)
Time: 05:20:30
(UTC+02:00)

Tiangong - Pass Details

Date: 15 June 2024
Orbit: 374 x 377 km, 41.5° (Epoch: 18 July)

Event Time Altitude Azimuth Distance (km) Brightness Sun altitude
Rises 22:09:14 0° 277° (W) 2,253 2.9 -5.3°
Reaches altitude 10° 22:11:22 10° 271° (W) 1,396 1.6 -5.6°
Maximum altitude 22:14:22 42° 198° (SSW) 549 -1.5 -6.0°
Drops below altitude 10° 22:17:21 10° 125° (SE) 1,384 0.0 -6.5°
Enters shadow 22:17:37 - 124° (SE) 1,490 0.1 -6.5°
